Tiempo cada hora Almaty

Hoy, 31 Julio, Sábado

Tiempo Temperatura Precipitaciones Viento Presión Humedad
00:00 +20°C° 0 mm 1 mps 687 mmHg 47%
01:00 +19°C° 0 mm 2 mps 687 mmHg 47%
02:00 +18°C° 0 mm 2 mps 687 mmHg 47%
03:00 +18°C° 0 mm 2 mps 687 mmHg 47%
04:00 +18°C° 0 mm 2 mps 687 mmHg 47%
05:00 +19°C° 0 mm 1 mps 687 mmHg 46%
06:00 +20°C° 0 mm 2 mps 688 mmHg 43%
07:00 +23°C° 0 mm 2 mps 688 mmHg 39%
08:00 +25°C° 0 mm 2 mps 688 mmHg 36%
09:00 +27°C° 0 mm 3 mps 688 mmHg 33%
10:00 +28°C° 0 mm 3 mps 688 mmHg 30%
11:00 +29°C° 0 mm 4 mps 688 mmHg 29%
12:00 +30°C° 0 mm 4 mps 688 mmHg 27%
13:00 +30°C° 0 mm 4 mps 688 mmHg 26%
14:00 +32°C° 0 mm 4 mps 688 mmHg 24%
15:00 +30°C° 0 mm 4 mps 688 mmHg 24%
16:00 +30°C° 0 mm 4 mps 688 mmHg 24%
17:00 +30°C° 0 mm 3 mps 688 mmHg 23%
18:00 +28°C° 0 mm 3 mps 688 mmHg 27%
19:00 +25°C° 0 mm 3 mps 688 mmHg 31%
20:00 +22°C° 0 mm 3 mps 687 mmHg 35%
21:00 +21°C° 0 mm 3 mps 687 mmHg 37%
22:00 +21°C° 0 mm 2 mps 687 mmHg 39%
23:00 +20°C° 0 mm 2 mps 687 mmHg 41%

Mañana, 1 Agosto, Domingo

Tiempo Temperatura Precipitaciones Viento Presión Humedad
00:00 +20°C° 0 mm 2 mps 686 mmHg 40%
01:00 +19°C° 0 mm 2 mps 686 mmHg 39%
02:00 +19°C° 0 mm 2 mps 686 mmHg 38%
03:00 +19°C° 0 mm 2 mps 685 mmHg 37%
04:00 +20°C° 0 mm 1 mps 685 mmHg 36%
05:00 +19°C° 0 mm 1 mps 685 mmHg 35%
06:00 +22°C° 0 mm 1 mps 685 mmHg 32%
07:00 +24°C° 0 mm 2 mps 686 mmHg 29%
08:00 +26°C° 0 mm 2 mps 686 mmHg 26%
09:00 +28°C° 0 mm 2 mps 686 mmHg 24%
10:00 +29°C° 0 mm 3 mps 686 mmHg 23%
11:00 +31°C° 0 mm 3 mps 686 mmHg 22%
12:00 +33°C° 0 mm 4 mps 685 mmHg 22%
13:00 +34°C° 0 mm 4 mps 685 mmHg 21%
14:00 +34°C° 0 mm 4 mps 685 mmHg 21%
15:00 +34°C° 0 mm 4 mps 685 mmHg 21%
16:00 +34°C° 0 mm 4 mps 685 mmHg 21%
17:00 +34°C° 0 mm 4 mps 685 mmHg 21%
18:00 +30°C° 0 mm 3 mps 685 mmHg 23%
19:00 +28°C° 0 mm 3 mps 685 mmHg 25%
20:00 +25°C° 0 mm 2 mps 685 mmHg 26%
21:00 +25°C° 0 mm 2 mps 685 mmHg 27%
22:00 +24°C° 0 mm 2 mps 685 mmHg 28%
23:00 +23°C° 0 mm 2 mps 685 mmHg 29%

Pasado mañana, 2 Agosto, Lunes

Tiempo Temperatura Precipitaciones Viento Presión Humedad
00:00 +23°C° 0 mm 2 mps 684 mmHg 30%
01:00 +23°C° 0 mm 2 mps 684 mmHg 31%
02:00 +23°C° 0 mm 2 mps 684 mmHg 32%
03:00 +23°C° 0 mm 2 mps 684 mmHg 32%
04:00 +23°C° 0 mm 2 mps 684 mmHg 32%
05:00 +23°C° 0 mm 2 mps 684 mmHg 32%
06:00 +24°C° 0 mm 2 mps 684 mmHg 29%
07:00 +26°C° 0 mm 2 mps 685 mmHg 26%
08:00 +27°C° 0 mm 2 mps 685 mmHg 22%
09:00 +28°C° 0 mm 2 mps 685 mmHg 21%
10:00 +29°C° 0 mm 2 mps 685 mmHg 20%
11:00 +31°C° 0 mm 2 mps 685 mmHg 19%
12:00 +31°C° 0 mm 2 mps 685 mmHg 20%
13:00 +31°C° 0 mm 2 mps 685 mmHg 21%
14:00 +31°C° 0 mm 2 mps 685 mmHg 22%
15:00 +31°C° 0.2 mm 3 mps 685 mmHg 27%
16:00 +30°C° 0.2 mm 3 mps 685 mmHg 32%
17:00 +29°C° 0.2 mm 4 mps 686 mmHg 37%
18:00 +28°C° 0.1 mm 4 mps 686 mmHg 40%
19:00 +27°C° 0.1 mm 4 mps 686 mmHg 43%
20:00 +26°C° 0.1 mm 4 mps 686 mmHg 46%
21:00 +25°C° 0 mm 4 mps 686 mmHg 47%
22:00 +25°C° 0 mm 4 mps 685 mmHg 48%
23:00 +24°C° 0 mm 3 mps 685 mmHg 50%

3 Agosto, Martes

Tiempo Temperatura Precipitaciones Viento Presión Humedad
00:00 +24°C° 0 mm 3 mps 685 mmHg 50%
01:00 +22°C° 0 mm 3 mps 685 mmHg 50%
02:00 +22°C° 0 mm 3 mps 685 mmHg 50%
03:00 +22°C° 0 mm 3 mps 685 mmHg 49%
04:00 +22°C° 0 mm 3 mps 685 mmHg 49%
05:00 +21°C° 0 mm 3 mps 685 mmHg 49%
06:00 +25°C° 0 mm 2 mps 685 mmHg 42%
07:00 +27°C° 0 mm 2 mps 686 mmHg 36%
08:00 +30°C° 0 mm 2 mps 686 mmHg 30%
09:00 +31°C° 0 mm 2 mps 686 mmHg 27%
10:00 +32°C° 0 mm 2 mps 686 mmHg 25%
11:00 +34°C° 0 mm 3 mps 686 mmHg 22%
12:00 +35°C° 0 mm 3 mps 686 mmHg 21%
13:00 +36°C° 0 mm 3 mps 686 mmHg 20%
14:00 +36°C° 0 mm 4 mps 686 mmHg 18%
15:00 +36°C° 0 mm 3 mps 685 mmHg 18%
16:00 +36°C° 0 mm 3 mps 685 mmHg 18%
17:00 +35°C° 0 mm 3 mps 685 mmHg 18%
18:00 +33°C° 0 mm 3 mps 685 mmHg 21%
19:00 +29°C° 0 mm 3 mps 685 mmHg 25%
20:00 +27°C° 0 mm 3 mps 685 mmHg 28%
21:00 +26°C° 0 mm 3 mps 685 mmHg 29%
22:00 +26°C° 0 mm 3 mps 685 mmHg 30%
23:00 +25°C° 0 mm 3 mps 685 mmHg 31%

4 Agosto, Miércoles

Tiempo Temperatura Precipitaciones Viento Presión Humedad
00:00 +25°C° 0 mm 2 mps 685 mmHg 31%
01:00 +25°C° 0 mm 2 mps 685 mmHg 31%
02:00 +25°C° 0 mm 2 mps 685 mmHg 32%
03:00 +24°C° 0 mm 2 mps 685 mmHg 32%
04:00 +24°C° 0 mm 2 mps 685 mmHg 33%
05:00 +24°C° 0 mm 2 mps 685 mmHg 34%
06:00 +26°C° 0 mm 2 mps 686 mmHg 31%
07:00 +28°C° 0 mm 2 mps 686 mmHg 28%
08:00 +30°C° 0 mm 2 mps 687 mmHg 26%
09:00 +31°C° 0 mm 2 mps 687 mmHg 25%
10:00 +34°C° 0 mm 2 mps 687 mmHg 24%
11:00 +35°C° 0 mm 3 mps 687 mmHg 23%
12:00 +36°C° 0.1 mm 3 mps 686 mmHg 22%
13:00 +36°C° 0.1 mm 3 mps 686 mmHg 21%
14:00 +37°C° 0.1 mm 4 mps 686 mmHg 21%
15:00 +36°C° 0 mm 4 mps 686 mmHg 22%
16:00 +35°C° 0 mm 5 mps 686 mmHg 23%
17:00 +35°C° 0 mm 6 mps 686 mmHg 24%
18:00 +33°C° 0 mm 4 mps 686 mmHg 27%
19:00 +30°C° 0 mm 3 mps 687 mmHg 31%
20:00 +28°C° 0 mm 2 mps 687 mmHg 34%
21:00 +27°C° 0 mm 2 mps 687 mmHg 36%
22:00 +25°C° 0 mm 2 mps 687 mmHg 38%
23:00 +24°C° 0 mm 2 mps 687 mmHg 40%

5 Agosto, Jueves

Tiempo Temperatura Precipitaciones Viento Presión Humedad
00:00 +24°C° 0 mm 2 mps 686 mmHg 40%
01:00 +24°C° 0 mm 2 mps 686 mmHg 40%
02:00 +24°C° 0 mm 2 mps 686 mmHg 41%
03:00 +23°C° 0 mm 1 mps 686 mmHg 41%
04:00 +23°C° 0 mm 1 mps 686 mmHg 41%
05:00 +23°C° 0 mm 1 mps 686 mmHg 42%
06:00 +25°C° 0 mm 2 mps 686 mmHg 37%
07:00 +27°C° 0 mm 2 mps 687 mmHg 33%
08:00 +29°C° 0 mm 2 mps 687 mmHg 28%
09:00 +31°C° 0 mm 3 mps 687 mmHg 27%
10:00 +33°C° 0 mm 3 mps 687 mmHg 26%
11:00 +34°C° 0 mm 3 mps 687 mmHg 24%
12:00 +35°C° 0.1 mm 3 mps 686 mmHg 23%
13:00 +35°C° 0.1 mm 3 mps 686 mmHg 22%
14:00 +36°C° 0.1 mm 3 mps 686 mmHg 21%
15:00 +36°C° 0 mm 4 mps 686 mmHg 22%
16:00 +35°C° 0 mm 4 mps 686 mmHg 22%
17:00 +35°C° 0 mm 4 mps 686 mmHg 22%
18:00 +32°C° 0 mm 4 mps 686 mmHg 26%
19:00 +28°C° 0 mm 3 mps 686 mmHg 30%
20:00 +26°C° 0 mm 2 mps 686 mmHg 34%
21:00 +25°C° 0 mm 2 mps 685 mmHg 34%
22:00 +25°C° 0 mm 2 mps 685 mmHg 35%
23:00 +24°C° 0 mm 2 mps 685 mmHg 36%
Mostrar más

Necesitamos Su Consentimiento

Meteoprog y nuestros Proveedores de Servicios pueden almacenar y acceder a sus datos personales como cookies, identificadores de dispositivo u otras tecnologías similares de su dispositivo y procesar dichos datos para personalizar contenido y anuncios, además de ofrecer funciones de redes sociales y analizar el tráfico.

  • Almacenar y/o acceder a información en su dispositivo

    Se puede almacenar o acceder a cookies, identificadores de dispositivo u otra información de su dispositivo para los fines anteriormente indicados.

  • Anuncios y contenido personalizados, medición de anuncios y contenido, percepciones del público, y desarrollo de productos

    Los anuncios y el contenido pueden personalizarse en base a su perfil. Se pueden añadir más datos para personalizar mejor los anuncios y contenidos. Se puede medir el rendimiento de los anuncios y contenidos. Se puede obtener la percepción sobre el público que ha visto los anuncios y contenidos. Dichos datos pueden usarse para desarrollar o mejorar la experiencia del usuario, sistemas y software.

Al hacer clic en ‘Estoy De Acuerdo’ usted permitirá el uso de las cookies, identificadores de dispositivo, balizas web u otras tecnologías similares indicadas. Su configuración puede cambiarse desde el navegador de su dispositivo.

Para ciertos fines, los intereses legítimos pueden ser considerados por encima del consentimiento. Puede leer más sobre ello en nuestra Política de Privacidad y Cookies.